Powrót do katalogu

SL-12 R/B(2)

AktywnyGEO
NORAD 27780·ROCKET BODY·🇷🇺 Russia

Wystrzelony Apr 24, 2003 z Baikonur Cosmodrome

Loading…

TLE

ŚwieżeSource: Space-Track

Epoka: Sep 14, 2026, 19:26 UTC

1 27780U 03015F   26257.81037443 -.00000354  00000-0  00000-0 0  9998
2 27780  12.8499  19.7117 0009333  43.4712 330.6269  1.00190129 85403

Śledź SL-12 R/B(2) w czasie rzeczywistym z AllMySat

Download on the App Store